CZ-4C DEB (44213 NORAD) Tracking and Keplerian Element Data

This shows tracking and keplerian element data for the satellite.

Feedback or suggestion? Click here.




ElementValue
Catalog44213
NameCZ-4C DEB
Epoch Orbit381
Epoch Day145.45777762
Epoch Year2019
RAAN152.4985
Inclination97.3711
Eccentricity0.0020508
Argument of Perigee304.8293
Mean Anonmoly55.1026
Mean Motion15.20987551
Decay Rate9E-06
L11 44213U 19024G 19145.45777762 .00000900 00000-0 43536-4 0 9999
L22 44213 97.3711 152.4985 0020508 304.8293 55.1026 15.20987551 3816

Live tracking and technical data element details for CZ-4C DEB (NORAD 44213). CZ-4C DEB can be tracked NOW for your location showing map with azimuth and elevation plus other details from your city location.

Track the satellite on the map from your city or location and see movement details for azimuth, elevation, latitude, longitude, range, height, and movement on the map or in text.







IsCatalogInMostPopularTable: catalog: 44213, numindb: 4
Update: records affected: 1



GetName: 44213 CZ-4C DEB

Hit Count: updated at: Sun, 26 May 2019 07:40:56 GMT